Location: *
(23.5860°S, 65.4036°W)
Time: 12:11:59
(UTC+00:00)

Cosmos 1943 Rocket - Pass Details

Date: 25 August 2019
Orbit: 812 x 844 km, 71.0° (Epoch: 15 September)

Event Time Altitude Azimuth Distance (km) Brightness Sun altitude
Rises 23:31:04 0° 344° (NNW) 3,375 5.6 -19.6°
Reaches altitude 10° 23:33:29 10° 344° (NNW) 2,450 4.8 -20.1°
Maximum altitude 23:39:08 88° 72° (ENE) 852 2.1 -21.4°
Enters shadow 23:44:45 11° 162° (SSE) 2,443 4.4 -22.7°
